Location: Neuvy Saint Sepulchre
(46.5953°N, 1.8122°E)
Time: 22:58:30
(UTC+02:00)

ISS - Pass Details

Date: 27 March 2019
Orbit: 408 x 410 km, 51.6° (Epoch: 22 April)

Event Time Altitude Azimuth Distance (km) Brightness Sun altitude
Rises 21:43:54 0° 286° (WNW) 2,337 1.2 -24.8°
Reaches altitude 10° 21:46:07 10° 297° (WNW) 1,475 0.0 -25.1°
Enters shadow 21:48:14 27° 329° (NNW) 822 -1.7 -25.4°
